Regional Weather Roundup
Issued by NWS Cleveland, OH

Home | Current Version | Previous Version | Text Only | Print | Product List | Glossary Off
Versions: 1 2 3 4 5 6 7 8 9 10 11 12 13 14 15 16 17 18 19 20 21 22 23 24 25 26 27 28 29 30 31 32 33 34 35 36 37 38 39 40 41 42 43 44 45 46 47 48 49 50

000
ASUS41 KCLE 281700
RWRCLE
OHIO REGIONAL WEATHER ROUNDUP
NATIONAL WEATHER SERVICE WILMINGTON, OH
100 PM EDT WED SEP 28 2016

NOTE: "FAIR" INDICATES FEW OR NO CLOUDS BELOW 12,000 FEET WITH NO
SIGNIFICANT WEATHER AND/OR OBSTRUCTIONS TO VISIBILITY.

OHZ001>008-015>018-024>027-034-035-043-044-281800-
   NORTHWEST OHIO

CITY           SKY/WX    TMP DP  RH WIND       PRES   REMARKS
DEFIANCE       CLOUDY    61  50  67 E7        29.87R
FINDLAY        CLOUDY    60  53  77 S12       29.87R
TOLEDO EXPRESS CLOUDY    57  53  86 E7        29.88R
TOLEDO EXEC    CLOUDY    59  54  83 E15       29.89R
LIMA           PTSUNNY   60  55  83 S9        29.85S
$$

OHZ009>014-019>023-028>033-038-089-281800-
   NORTHEAST OHIO

CITY           SKY/WX    TMP DP  RH WIND       PRES   REMARKS
CLE-HOPKINS    PTSUNNY   65  47  52 SE3       29.94F
CLE-LAKEFRONT  PTSUNNY   65  50  58 NW6       29.92S
CUY CO. ARPT   PTSUNNY   68  52  56 NW7       29.93F
LORAIN-ELYRIA  CLOUDY    58  50  75 CALM      29.94R
ASHTABULA      FAIR      69  49  48 SE9       29.96F
AKRON-CANTON   PTSUNNY   71  44  37 S13       29.91F
WOOSTER        NOT AVBL
MANSFIELD      RAIN      54  54 100 E7        29.95R FOG
YOUNGSTOWN     PTSUNNY   68  49  50 SE12      29.94F
$$

OHZ042-051>053-060>062-070>072-077>081-281800-
  SOUTHWEST OHIO

CITY           SKY/WX    TMP DP  RH WIND       PRES   REMARKS
CINC-COVINGTON CLOUDY    62  54  74 SE14      29.83S
CINC-LUNKEN    LGT RAIN  62  55  77 SE7       29.85S
HAMILTON       LGT RAIN  61  53  75 E6        29.84F
DAYTON         LGT RAIN  58  55  90 E7        29.88R
WRIGHT-PAT AFB PTSUNNY   61  57  88 E6        29.86F
DAYTON GENERAL CLOUDY    60  53  77 SE8       29.85S
WILMINGTON     PTSUNNY   58  53  84 E9        29.86F
$$

OHZ036-037-039>041-045>050-054>059-063>069-073>076-082>088-281800-
  CENTRAL AND SOUTHEAST OHIO

CITY           SKY/WX    TMP DP  RH WIND       PRES   REMARKS
COLUMBUS       LGT RAIN  55  55 100 E12       29.89F FOG
OSU AIRPORT    CLOUDY    57  57 100 E15       29.87F FOG
BOLTON FIELD   LGT RAIN  55  55 100 E9G16     29.89F
RICKENBACK AFB NOT AVBL
NEWARK         LGT RAIN  56  54  93 N5        29.92F
MARION         FAIR      57  54  89 SE15      29.88S
LANCASTER      LGT RAIN  57  54  89 NE8       29.92F
ZANESVILLE     PTSUNNY   71  46  40 S12       29.90S
NEW PHILLY     FAIR      73  44  35 SE13G20   29.91F
$$




USA.gov is the U.S. government's official web portal to all federal, state and local government web resources and services.